Aurora, NE

3:40 AM CDT on June 27, 2017 (GMT -0500)
Aurora Municipal

Weather History for KAUH - March, 2014

Change the Weather History Date:

Wednesday, March 19, 2014

  Actual Average Record
Temperature  
Mean Temperature 41 °F -  
Max Temperature 54 °F 49 °F 81 °F (2017)
Min Temperature 28 °F 28 °F 1 °F (1965)
Degree Days  
Heating Degree Days 24    
Moisture  
Dew Point 28 °F    
Average Humidity 69    
Maximum Humidity 92    
Minimum Humidity 31    
Precipitation  
Precipitation 0.01 in - - ()
Sea Level Pressure  
Sea Level Pressure 30.04 in    
Wind  
Wind Speed 17 mph (WNW)    
Max Wind Speed 31 mph    
Max Gust Speed 38 mph    
Visibility 9 miles    
Events      
Averages and records for this station are not official NWS values.
T = Trace of Precipitation, MM = Missing Value Source: NWS Daily Summary

Daily Weather History Graph

Daily Weather History Graph

Search for Another Location

Airport or City:

Trip Planner

Search our weather history database for the weather conditions in past years. The results will help you decide how hot, cold, wet, or windy it might be!

Date:

Astronomy

Mar. 19, 2014 Rise Set
Actual Time 7:36 AM CDT 7:43 PM CDT
Civil Twilight 7:09 AM CDT 8:10 PM CDT
Nautical Twilight 6:37 AM CDT 8:42 PM CDT
Astronomical Twilight 6:05 AM CDT 9:15 PM CDT
Moon 11:04 PM CDT (3/19) 9:02 AM CDT (3/19)
Length of Visible Light 13h 00m
Length of Day
12h 06m
Waning Gibbous, 91% of the Moon is Illuminated
Mar 19
Waning Gibbous
Mar 23
Last Quarter
Mar 30
New
Apr 7
First Quarter
Apr 15
Full

Hourly Weather History & Observations

Time (CDT) Temp. Windchill Dew Point Humidity Pressure Visibility Wind Dir Wind Speed Gust Speed Precip Events Conditions
12:15 AM 31.8 °F 18.1 °F 29.7 °F 92% 29.91 in 7.0 mi NNW 26.5 mph 31.1 mph N/A   Overcast
12:35 AM 32.0 °F 17.4 °F 29.7 °F 91% 29.91 in 5.0 mi NNW 31.1 mph 38.0 mph N/A   Overcast
12:55 AM 31.8 °F 17.6 °F 29.5 °F 91% 29.92 in 5.0 mi NNW 28.8 mph 36.8 mph N/A   Overcast
1:15 AM 32.0 °F 18.4 °F 29.3 °F 90% 29.93 in 5.0 mi North 26.5 mph 35.7 mph N/A   Overcast
1:35 AM 32.0 °F 18.4 °F 29.3 °F 90% 29.93 in 10.0 mi NNW 26.5 mph 33.4 mph N/A   Overcast
1:55 AM 32.2 °F 18.4 °F 29.3 °F 89% 29.95 in 7.0 mi NNW 27.6 mph 35.7 mph N/A   Overcast
2:15 AM 32.4 °F 19.1 °F 29.3 °F 88% 29.95 in 10.0 mi North 25.3 mph 31.1 mph N/A   Overcast
2:35 AM 32.7 °F 20.7 °F 30.0 °F 90% 29.95 in 10.0 mi North 20.7 mph 29.9 mph N/A   Overcast
2:55 AM 32.9 °F 21.3 °F 30.2 °F 90% 29.96 in 10.0 mi North 19.6 mph - N/A   Overcast
3:15 AM 33.1 °F 23.0 °F 30.6 °F 90% 29.96 in 10.0 mi NNW 15.0 mph - N/A   Overcast
3:35 AM 33.3 °F 22.8 °F 30.6 °F 90% 29.97 in 10.0 mi NNW 16.1 mph 19.6 mph N/A   Overcast
3:55 AM 33.4 °F 23.9 °F 30.7 °F 90% 29.97 in 10.0 mi NNW 13.8 mph - N/A   Overcast
4:15 AM 33.4 °F 23.9 °F 30.2 °F 88% 29.98 in 10.0 mi NNW 13.8 mph - N/A   Overcast
4:35 AM 32.9 °F 21.6 °F 28.9 °F 85% 29.99 in 10.0 mi NNW 18.4 mph - N/A   Overcast
4:55 AM 32.0 °F 22.1 °F 28.4 °F 87% 30.00 in 10.0 mi NNW 13.8 mph - N/A   Overcast
5:15 AM 32.9 °F 23.2 °F 28.9 °F 85% 30.01 in 10.0 mi NNW 13.8 mph 20.7 mph N/A   Overcast
5:35 AM 32.0 °F 22.1 °F 28.4 °F 87% 30.01 in 10.0 mi NW 13.8 mph - N/A   Overcast
5:55 AM 32.2 °F 22.7 °F 29.1 °F 88% 30.01 in 10.0 mi NNW 12.7 mph - N/A   Overcast
6:15 AM 31.8 °F 22.8 °F 28.4 °F 87% 30.02 in 7.0 mi NNW 11.5 mph - N/A   Overcast
6:35 AM 30.9 °F 21.7 °F 27.9 °F 88% 30.03 in 7.0 mi NW 11.5 mph - N/A   Mostly Cloudy
6:55 AM 30.7 °F 20.9 °F 27.0 °F 86% 30.04 in 10.0 mi NW 12.7 mph - N/A   Mostly Cloudy
7:15 AM 30.7 °F 20.4 °F 27.0 °F 86% 30.05 in 10.0 mi NNW 13.8 mph - N/A   Scattered Clouds
7:35 AM 29.8 °F 20.3 °F 26.6 °F 88% 30.05 in 7.0 mi NNW 11.5 mph - N/A   Scattered Clouds
7:55 AM 29.1 °F 19.4 °F 26.1 °F 88% 30.06 in 7.0 mi NW 11.5 mph - N/A   Clear
8:15 AM 28.2 °F 20.2 °F 25.3 °F 89% 30.07 in 7.0 mi NW 8.1 mph - N/A   Clear
8:35 AM 28.8 °F 21.7 °F 25.7 °F 88% 30.08 in 7.0 mi NW 6.9 mph - N/A   Clear
8:55 AM 28.6 °F 21.5 °F 25.9 °F 90% 30.08 in 7.0 mi WNW 6.9 mph - N/A   Clear
9:15 AM 30.2 °F 25.4 °F 27.1 °F 88% 30.09 in 7.0 mi WNW 4.6 mph - N/A   Clear
9:35 AM 31.6 °F 23.1 °F 28.0 °F 87% 30.10 in 7.0 mi West 10.4 mph - N/A   Clear
9:55 AM 32.0 °F 23.6 °F 28.4 °F 87% 30.10 in 5.0 mi West 10.4 mph - N/A   Clear
10:15 AM 32.5 °F 24.8 °F 29.1 °F 87% 30.11 in 7.0 mi WNW 9.2 mph - N/A   Clear
10:35 AM 34.0 °F 26.0 °F 30.2 °F 86% 30.11 in 5.0 mi West 10.4 mph - N/A   Clear
10:55 AM 35.1 °F 28.6 °F 30.9 °F 85% 30.12 in 7.0 mi WNW 8.1 mph - N/A   Clear
11:15 AM 36.9 °F 29.6 °F 32.0 °F 83% 30.12 in 7.0 mi West 10.4 mph - N/A   Clear
11:35 AM 38.3 °F 31.9 °F 32.4 °F 79% 30.12 in 10.0 mi West 9.2 mph - N/A   Clear
11:55 AM 40.1 °F 34.1 °F 33.3 °F 77% 30.12 in 10.0 mi West 9.2 mph - N/A   Clear
12:15 PM 42.4 °F 36.5 °F 33.6 °F 71% 30.12 in 10.0 mi West 10.4 mph - N/A   Clear
12:35 PM 44.1 °F 37.7 °F 34.0 °F 68% 30.11 in 10.0 mi West 12.7 mph 16.1 mph N/A   Clear
12:55 PM 45.7 °F 39.8 °F 33.8 °F 63% 30.11 in 10.0 mi West 12.7 mph 17.3 mph N/A   Clear
1:15 PM 47.1 °F - 32.2 °F 56% 30.11 in 10.0 mi West 17.3 mph 23.0 mph N/A   Clear
1:35 PM 49.1 °F - 27.7 °F 44% 30.10 in 10.0 mi WNW 12.7 mph 19.6 mph N/A   Clear
1:55 PM 49.3 °F - 27.7 °F 43% 30.10 in 10.0 mi West 12.7 mph 21.9 mph N/A   Clear
2:15 PM 50.4 °F - 27.7 °F 42% 30.09 in 10.0 mi WNW 15.0 mph 26.5 mph 0.01 in   Scattered Clouds
2:35 PM 51.1 °F - 28.2 °F 41% 30.08 in 10.0 mi West 13.8 mph 20.7 mph 0.01 in   Scattered Clouds
2:55 PM 50.9 °F - 27.9 °F 41% 30.07 in 10.0 mi WNW 13.8 mph - 0.01 in   Scattered Clouds
3:15 PM 52.5 °F - 27.5 °F 38% 30.07 in 10.0 mi West 12.7 mph 20.7 mph N/A   Scattered Clouds
3:35 PM 51.3 °F - 26.6 °F 38% 30.06 in 10.0 mi West 15.0 mph 19.6 mph N/A   Mostly Cloudy
3:55 PM 52.3 °F - 27.1 °F 38% 30.05 in 10.0 mi West 16.1 mph 20.7 mph N/A   Overcast
4:15 PM 52.2 °F - 26.8 °F 37% 30.05 in 10.0 mi West 16.1 mph - N/A   Mostly Cloudy
4:35 PM 52.2 °F - 26.8 °F 37% 30.05 in 10.0 mi WNW 15.0 mph - N/A   Mostly Cloudy
4:55 PM 53.1 °F - 26.4 °F 36% 30.05 in 10.0 mi West 17.3 mph - N/A   Mostly Cloudy
5:15 PM 52.7 °F - 25.5 °F 35% 30.04 in 10.0 mi WNW 11.5 mph 17.3 mph N/A   Mostly Cloudy
5:35 PM 54.5 °F - 24.1 °F 31% 30.03 in 10.0 mi West 19.6 mph 25.3 mph N/A   Scattered Clouds
5:55 PM 54.0 °F - 23.5 °F 31% 30.04 in 10.0 mi West 19.6 mph 28.8 mph N/A   Scattered Clouds
6:15 PM 52.7 °F - 23.7 °F 32% 30.04 in 10.0 mi West 13.8 mph - N/A   Clear
6:35 PM 52.7 °F - 23.5 °F 32% 30.04 in 10.0 mi WNW 11.5 mph 21.9 mph N/A   Clear
6:55 PM 51.8 °F - 24.6 °F 35% 30.04 in 10.0 mi West 11.5 mph - N/A   Clear
7:15 PM 49.5 °F - 25.0 °F 38% 30.04 in 10.0 mi West 9.2 mph - N/A   Clear
7:35 PM 45.9 °F 41.7 °F 25.0 °F 44% 30.04 in 10.0 mi West 8.1 mph - N/A   Clear
7:55 PM 42.1 °F 38.4 °F 24.6 °F 50% 30.03 in 10.0 mi WSW 5.8 mph - N/A   Clear
8:15 PM 42.8 °F 39.3 °F 24.8 °F 49% 30.03 in 10.0 mi SW 5.8 mph - N/A   Clear
8:35 PM 42.6 °F 39.0 °F 24.8 °F 49% 30.03 in 10.0 mi WSW 5.8 mph - N/A   Clear
8:55 PM 39.7 °F 35.6 °F 24.4 °F 54% 30.04 in 10.0 mi WSW 5.8 mph - N/A   Clear
9:15 PM 37.2 °F 33.6 °F 24.4 °F 60% 30.04 in 10.0 mi WSW 4.6 mph - N/A   Clear
9:35 PM 35.6 °F 31.7 °F 23.9 °F 62% 30.04 in 10.0 mi WSW 4.6 mph - N/A   Clear
9:55 PM 34.0 °F 28.8 °F 23.5 °F 66% 30.05 in 10.0 mi SW 5.8 mph - N/A   Clear
10:15 PM 34.0 °F 28.0 °F 24.4 °F 68% 30.05 in 10.0 mi SW 6.9 mph - N/A   Clear
10:35 PM 32.5 °F 27.1 °F 23.9 °F 70% 30.04 in 10.0 mi SW 5.8 mph - N/A   Clear
10:55 PM 34.2 °F 30.0 °F 24.8 °F 69% 30.04 in 10.0 mi SW 4.6 mph - N/A   Clear
11:15 PM 32.2 °F 26.7 °F 24.1 °F 72% 30.04 in 10.0 mi SW 5.8 mph - N/A   Clear
11:35 PM 32.2 °F 26.7 °F 24.6 °F 74% 30.03 in 10.0 mi SW 5.8 mph - N/A   Clear
11:55 PM 32.0 °F 24.8 °F 24.1 °F 73% 30.02 in 10.0 mi SW 8.1 mph - N/A   Clear